7 * 24
多渠道服务支持
GSAT0101,也称为GALILEO-PFM(Galileo In-Orbit Validation Element-PFM),是欧洲伽利略卫星导航系统的第一颗验证卫星。该卫星于2005年12月28日由阿丽亚娜5型火箭发射,主要用于验证伽利略系统的运行性能和关键技术。GALILEO-PFM不提供商业导航服务,而是作为技术验证平台,为后续卫星的部署奠定基础。它搭载了高精度原子钟和导航信号发射器,是伽利略计划成功实施的关键一步。
(ESA)
| 数据来源 | 国际轨道数据 |
| 星历时间: | 2026-02-22T19:08:38+0800 轨道信息已过期8天 |
| 半长轴: | 29600.158km |
| 偏心率: | 0.0003976 |
| 轨道倾角: | 57.032° |
| 近地点辐角 | 357.059° |
| 升交点赤经 | 344.876° |
| 平近点角 | 2.953° |
| 近地点: | 23210.251km |
| 远地点: | 23233.791km |
| 周期: | 844.697分钟 |
| 每日圈数: | 1.704754 |